User: anonymous   Login
Location: Fort Wayne
(41.1310°N, 85.1290°W)
Time: 03:07:26
(UTC-04:00)
Language:

Meteor 2-10 Rocket - Orbit

View from above orbital plane
View from above orbital plane
View from above satellite
View from above satellite

Ground track
Ground track

The orbit data is extracted from the following two-line orbital elements,

1 14453U 83109B   16241.52202647  .00000053  00000-0  16159-4 0  9994
2 14453  81.1659  40.7129 0104887 189.8146 170.0988 14.24653729705858
Epoch (UTC): 28 August 2016 12:31:43
Eccentricity: 0.0104887
inclination: 81.1659°
perigee height: 734 km
apogee height: 885 km
right ascension of ascending node: 40.7129°
argument of perigee: 189.8146°
revolutions per day: 14.24653729
mean anomaly at epoch: 170.0988°
orbit number at epoch: 70585

The dashed part of the orbit path shows where the satellite is in the earth's shadow,  

DLR